This demonstration page uses our WeatherBlox Daily Observations layout. Learn more.

Left ArrowRight Arrow

41.86663, -103.66717

Hourly Observations for July 1, 2020

Temp ( °F °C ) Dew Point ( °F °C ) Humidity (%) Winds ( mph kmh ) Pressure ( in mb ) Visibility ( mi km ) Precip ( " mm )
12:53 am 00:53 Clear 62 16.7 41 5 46 46 W 6 9 29.85 1011 10 16.0934 0 0
1:53 am 01:53 Clear 56 13.3 47 8.3 72 72 NE 5 7 29.87 1012 10 16.0934 0 0
2:53 am 02:53 Clear 56 13.3 45 7.2 67 67 N 7 11 29.87 1011 10 16.0934 0 0
3:53 am 03:53 Clear 54 12.2 45 7.2 72 72 N 6 9 29.87 1012 10 16.0934 0 0
4:53 am 04:53 Clear 55 12.8 42 5.6 62 62 NW 5 7 29.87 1011 10 16.0934 0 0
5:53 am 05:53 Sunny 52 11.1 41 5 66 66 WSW 6 9 29.88 1012 10 16.0934 0 0
6:53 am 06:53 Sunny 60 15.6 41 5 50 50 WNW 6 9 29.87 1012 10 16.0934 0 0
7:53 am 07:53 Mostly Sunny 65 18.3 40 4.4 40 40 SW 3 6 29.89 1012 10 16.0934 0 0
8:53 am 08:53 Sunny 70 21.1 44 6.7 39 39 S 6 9 29.91 1013 10 16.0934 0 0
9:53 am 09:53 Sunny 76 24.4 41 5 29 29 S 6 9 29.91 1013 10 16.0934 0 0
10:53 am 10:53 Sunny 82 27.8 39 3.9 22 22 SSW 14 22 29.88 1012 10 16.0934 0 0
11:53 am 11:53 Sunny 84 28.9 40 4.4 21 21 SSW 9 15 29.86 1011 10 16.0934 0 0
12:53 pm 12:53 Sunny 89 31.7 36 2.2 15 15 SSW 9 15 29.83 1010 10 16.0934 0 0
1:53 pm 13:53 Partly Cloudy 85 29.4 36 2.2 17 17 S 10 17 29.83 1010 10 16.0934 0 0
2:53 pm 14:53 Mostly Sunny 91 32.8 34 1.1 13 13 S 15 24 29.81 1009 10 16.0934 0 0
3:53 pm 15:53 Sunny 91 32.8 31 -0.6 12 12 SW 10 17 29.8 1009 10 16.0934 0 0
4:53 pm 16:53 Sunny 91 32.8 33 0.6 13 13 S 14 22 29.78 1009 10 16.0934 0 0
5:53 pm 17:53 Sunny 90 32.2 36 2.2 15 15 SSE 20 31 29.78 1009 10 16.0934 0 0
6:53 pm 18:53 Sunny 87 30.6 37 2.8 17 17 SSE 15 24 29.77 1008 10 16.0934 0 0
7:53 pm 19:53 Sunny 83 28.3 38 3.3 20 20 SSE 14 22 29.78 1009 10 16.0934 0 0
8:53 pm 20:53 Clear 76 24.4 38 3.3 25 25 ESE 10 17 29.8 1009 10 16.0934 0 0
9:53 pm 21:53 Clear 71 21.7 44 6.7 38 38 ESE 12 19 29.83 1010 10 16.0934 0 0
10:53 pm 22:53 Clear 76 24.4 49 9.4 39 39 SE 17 28 29.83 1010 10 16.0934 0 0
11:53 pm 23:53 Clear 71 21.7 51 10.6 49 49 ESE 14 22 29.84 1011 10 16.0934 0 0

Powered by AerisWeather